COSMOS 1275 DEB, 15542

Orbit data source: Space-Track

COSMOS 1275 DEB, 15542 is space debris in LEO originally from a launch on Thu, 04 Jun 1981 UTC launched from the Plesetsk Missile And Space Complex (PKMTR). Debris objects in space refer to the collection of defunct objects orbiting the Earth. Examples of debris include non-operational satellites, rocket bodies, and fragments generated from explosions, collisions, or faulty payload assembly.

Loading next visibility...
Identifier
15542, 1981-053KA
Orbit
LEO
Country
Flag of CISCIS
Related business
Manufacturer
Unknown
Mission
Spacecraft
Bus & Motor
Unknown
Mass
Unknown
Launch date (UTC)
1981-06-04 (45 years ago)
Launch vehicle
Unknown
Launch site
Plesetsk Missile And Space Complex (PKMTR)
Object type
Payload
Rocket body
Debris
Shape & HBR
Unknown shape, 0.1 m
Radar Cross Section
Small (<0.1 m²)

Expand to show TLE details & history
Last TLE update: 14 hours ago

TLE from 14 hours ago
0 COSMOS 1275 DEB
1 15542U 81053KA  25340.62081895  .00001407  00000-0  12787-2 0  9996
2 15542  83.0038 207.7461 0068855 180.6966 208.9417 13.81733472200154
Epoch: 2025-12-06T14:53Z
TLE epoch observation values (Epoch: 2025-12-06T14:53:58.757Z)
Latitude
29.06606°
Longitude
-87.50383°
Altitude
1,005.647 km
Speed
7.329 km/s
True Right ascension
14h 06m 32s
True Declination
28° 55' 31"
Sunlit
Object was in daylight at epoch
Visualization orbit readout
Latitude
Unknown
Longitude
Unknown
Altitude
Unknown
Speed
Unknown
Apparent Right ascension
Unknown
Apparent Declination
Unknown
Sunlit
N/A
Visualization observer readout
Local Sidereal Time
02:40:31
Azimuth
Unknown
Elevation
Unknown
Doppler factor
Unknown
Orbital elements
Apogee altitude
1,005.373 km
Perigee altitude
904.39 km
Semi-major axis
7,333.019 km
Eccentricity
0.00689
Inclination
83.0038°
RAAN
207.7461°
Arg. of periapsis
180.6966°
True anomaly
208.56274°
Mean anomaly
208.9417°
Eccentric anomaly
208.75193°
Mean motion
3.45636 °/min
Orbital period
104.16 mins
BSTAR
0.0012787
Loading maneuver chart data...
Computing Atmospheric mass density...

Documentation

Showing up to 5 results
|